GFSSGP_850_thetae_021.txt.gz
Theta_e
315 316 318 323 321 318 319 318 315 316 316 316 316 317 318 317 319 319 321 323 321 317 319 318 324 326 330 328 327 327 327 327 328 329 328 322 321 320 319 320 323 327 329 325 320 320 319 319 322
315 317 320 324 320 317 314 315 317 316 315 317 316 317 318 318 320 321 322 322 323 318 315 314 314 316 322 332 330 327 327 333 329 332 334 326 320 318 318 321 323 322 322 320 320 322 321 320 321
315 318 321 317 314 316 315 315 315 315 316 317 317 317 318 319 320 321 321 322 320 321 317 315 314 314 313 328 330 328 334 333 333 332 329 320 319 318 317 318 319 320 319 319 317 315 314 314 313
317 320 317 319 319 317 315 316 312 315 316 316 316 315 317 319 320 319 320 322 320 321 321 318 315 312 313 326 333 332 332 332 332 327 318 315 316 315 313 313 313 314 313 313 313 312 311 310 309
318 318 314 314 314 314 312 315 313 314 315 315 316 315 316 317 317 319 318 319 321 321 321 319 316 312 313 319 328 330 330 328 317 313 312 312 312 311 311 311 310 310 309 308 306 304 304 304 304
317 316 316 314 312 312 312 315 313 313 314 314 315 315 317 317 316 316 317 317 320 321 320 319 316 313 313 314 315 317 317 317 314 312 311 311 309 307 306 305 304 304 304 304 303 303 303 304 304
315 313 314 313 313 314 314 314 313 314 314 315 316 314 317 317 317 317 317 317 317 317 319 319 316 314 314 314 314 314 313 314 312 311 309 307 306 304 303 304 304 304 304 303 303 304 304 305 305
318 314 314 312 314 314 314 314 314 315 315 316 316 315 316 317 317 318 317 317 317 316 316 318 318 315 314 314 313 313 313 311 310 309 308 306 303 304 304 304 304 303 303 303 304 304 305 305 305
317 312 312 313 311 313 314 313 314 315 315 315 316 317 317 317 317 317 317 317 317 317 316 316 318 317 314 313 313 313 312 310 309 308 307 304 304 305 305 305 304 304 304 304 305 305 305 305 305
315 311 311 309 309 312 314 314 315 315 316 313 315 317 317 317 316 316 316 317 317 317 317 316 316 317 316 314 313 312 312 309 308 308 308 304 304 304 305 305 304 304 304 304 304 304 305 305 304
314 314 310 312 312 313 314 313 315 314 313 316 316 317 316 316 316 316 316 316 316 316 317 316 315 316 317 315 313 313 312 309 308 308 307 303 304 305 306 306 305 305 304 304 304 304 304 304 304
315 315 314 315 315 315 314 314 313 315 317 316 317 317 316 316 316 316 316 316 315 316 316 316 316 315 316 316 314 313 312 311 309 308 307 304 304 304 305 306 305 305 305 304 304 304 304 304 303
313 313 316 316 315 316 316 314 313 315 316 316 315 315 315 315 315 316 316 315 315 315 315 315 316 316 315 316 315 314 313 312 310 308 307 306 303 304 305 306 305 305 304 304 304 304 304 303 303
312 313 313 313 314 314 313 314 312 314 314 315 314 315 315 314 315 315 316 316 316 316 315 315 315 315 315 315 315 315 314 313 311 309 307 307 304 303 304 305 305 305 304 304 303 303 303 303 303
312 311 308 308 311 310 311 311 309 314 314 314 314 315 315 315 316 316 316 316 316 316 315 315 315 315 315 315 315 315 315 314 312 310 308 306 305 303 303 304 304 304 303 303 303 303 303 303 303
310 308 310 309 308 310 312 311 310 313 313 313 314 314 314 315 315 315 315 314 315 315 315 315 315 315 315 315 315 315 314 314 313 311 309 307 306 303 302 302 303 302 302 302 302 302 302 301 302
307 309 307 308 308 309 309 310 309 312 311 311 312 313 313 313 314 314 314 314 314 314 314 314 314 315 315 314 314 314 314 314 313 312 310 308 306 304 301 301 302 301 301 301 301 301 301 301 301
309 307 306 307 309 306 308 309 308 311 311 310 310 310 311 311 313 315 313 313 313 313 313 313 313 313 314 313 313 313 314 313 313 312 311 309 307 305 302 301 301 300 300 300 300 301 301 301 300
307 306 306 305 306 307 309 309 308 308 308 309 310 310 310 311 314 314 314 313 312 313 313 313 313 313 313 314 313 313 313 313 313 312 311 310 308 306 304 301 300 300 300 300 300 300 300 300 300
307 308 308 308 307 305 307 309 309 309 309 310 310 310 310 311 315 314 313 312 313 314 314 314 313 312 312 313 314 313 314 313 312 312 310 309 307 307 305 302 301 300 299 299 298 299 299 299 299
306 306 308 307 306 305 305 308 306 308 307 309 311 310 311 312 314 315 312 312 313 313 313 313 313 313 312 311 312 312 311 311 312 311 310 309 307 305 305 304 303 301 300 299 299 299 299 299 299
309 306 307 307 307 308 306 310 308 309 308 307 309 310 312 312 312 310 312 313 313 314 313 313 313 313 313 312 311 311 312 312 313 312 311 309 308 307 305 304 303 301 300 299 298 298 298 298 299
308 307 307 306 306 306 307 307 308 307 310 309 308 310 310 309 310 313 313 313 313 312 311 312 312 311 311 311 310 310 309 310 310 309 310 309 308 306 304 304 302 301 300 299 298 297 297 297 298
307 308 305 303 305 309 308 308 309 308 309 309 309 313 313 312 312 312 312 311 311 310 309 310 310 310 309 308 309 309 308 308 308 309 309 309 308 307 305 304 303 302 301 300 299 297 296 297 297
307 307 308 309 308 311 305 307 309 308 308 309 309 310 310 308 309 308 309 310 309 309 310 310 309 308 307 307 308 308 308 307 307 307 307 308 308 307 307 305 304 303 301 300 298 296 296 296 296
306 308 312 318 311 315 309 313 313 307 309 307 308 309 309 306 305 306 307 308 308 309 309 308 308 307 308 306 305 304 303 304 304 304 304 306 306 307 307 306 304 304 303 301 299 297 296 295 295
306 308 308 311 310 310 312 311 313 309 308 306 306 304 302 303 304 304 304 304 306 307 306 306 306 305 305 305 304 305 304 303 303 304 304 303 304 306 306 306 305 304 303 301 299 298 297 296 295
307 307 310 308 315 317 315 312 314 310 308 305 302 301 301 300 300 300 302 302 302 302 304 304 305 304 304 304 304 304 304 302 302 302 304 304 304 303 304 305 305 304 303 302 300 298 297 296 295
305 306 306 306 312 316 317 315 311 309 302 302 301 299 298 299 301 303 301 300 301 300 300 300 301 303 303 304 304 304 304 304 303 302 303 303 303 303 303 304 304 304 303 302 301 299 297 296 295
307 311 309 312 314 310 314 315 310 302 300 299 296 295 294 296 295 295 297 298 298 298 299 298 298 298 298 299 301 302 303 304 304 303 301 300 301 301 302 302 302 302 302 303 302 300 299 296 294

GFSSGP_850_thetae_024.txt.gz
Theta_e
315 316 317 323 324 323 322 323 321 323 322 318 318 320 322 321 321 322 321 322 319 320 325 329 330 332 331 331 331 329 327 326 326 326 325 325 324 321 319 320 322 325 327 323 321 320 320 319 320
315 316 319 324 322 321 319 321 324 322 319 317 317 318 320 322 320 320 321 322 321 318 322 325 327 327 330 330 326 327 326 326 326 325 323 323 320 320 319 319 322 324 324 321 320 321 322 320 321
314 316 322 322 322 320 321 322 321 319 317 319 320 318 320 321 320 320 321 322 321 318 318 319 320 324 325 325 328 326 326 329 332 332 330 318 316 317 318 320 322 323 321 320 320 317 315 314 314
316 320 319 321 321 322 321 321 320 320 317 317 318 320 318 319 320 320 319 320 321 320 317 315 314 315 316 318 328 327 328 332 333 332 328 316 315 315 315 314 315 316 317 316 314 313 312 311 310
317 319 320 321 320 319 319 318 318 320 319 318 317 320 318 318 317 317 319 318 321 320 320 317 315 315 314 313 320 327 331 333 332 327 317 314 313 313 313 312 312 312 312 312 310 306 304 304 304
318 319 319 319 319 319 319 318 317 318 318 317 317 318 319 317 317 316 316 318 319 321 321 320 319 316 313 316 326 332 331 331 328 315 313 312 312 311 310 309 308 307 305 304 303 303 303 303 303
319 319 319 319 320 320 320 315 318 319 318 319 317 319 319 317 317 317 317 317 317 320 321 320 320 316 314 314 320 326 328 329 324 315 312 310 310 308 306 304 304 304 303 303 303 303 304 304 304
319 320 320 320 320 319 318 316 316 317 319 316 316 319 319 318 317 317 317 317 317 318 318 319 319 318 315 313 314 316 317 318 316 314 312 310 308 305 304 304 304 304 304 304 304 304 305 305 306
317 320 320 319 318 318 317 318 314 316 316 315 316 317 318 317 317 317 317 317 317 317 317 317 319 319 316 314 314 314 314 314 314 312 311 309 306 303 304 304 304 304 303 304 304 305 305 305 305
319 320 319 318 317 317 317 316 317 317 318 317 316 317 317 317 316 316 316 316 316 317 317 317 317 318 318 316 314 314 314 314 313 311 310 308 305 303 304 304 304 304 304 304 304 304 305 305 305
319 319 319 316 315 314 316 316 316 317 319 318 318 317 317 317 316 316 316 316 316 316 316 317 317 316 317 318 315 314 313 313 313 310 309 308 305 303 304 304 304 304 304 304 304 305 305 305 305
318 318 318 317 315 315 316 316 316 316 317 317 317 316 316 315 316 316 315 315 315 315 316 316 316 316 316 317 317 314 313 313 313 311 309 308 306 303 304 305 305 304 304 304 304 304 304 304 304
318 318 317 317 315 315 315 316 317 317 316 316 316 314 314 314 314 315 315 315 315 315 315 315 316 316 316 316 316 316 315 313 313 312 309 308 307 304 304 304 305 304 304 304 304 303 303 303 303
316 315 316 315 315 315 315 316 314 315 315 314 314 314 314 314 314 314 314 315 315 316 316 315 315 315 316 316 316 316 316 315 313 313 311 309 307 306 304 304 305 304 304 304 304 303 303 303 303
313 315 316 315 313 314 313 315 315 315 315 313 314 314 314 314 314 314 314 315 316 315 315 315 315 315 315 315 316 316 315 315 315 314 312 310 308 307 304 303 304 304 304 303 303 303 303 303 303
313 313 315 315 312 312 314 316 316 315 312 313 314 314 314 314 314 313 313 314 314 314 314 314 314 315 315 315 315 315 315 315 315 314 313 311 309 307 305 303 302 303 303 303 303 303 302 302 302
314 315 316 315 312 313 314 315 316 313 312 313 313 313 313 313 313 313 313 313 312 313 313 313 313 313 314 314 314 314 315 315 315 315 314 313 310 308 305 304 302 302 302 302 302 302 302 301 301
317 315 314 313 314 312 312 313 314 313 312 312 312 313 313 313 313 312 312 312 312 312 312 312 312 312 312 313 313 313 314 314 315 315 314 314 312 309 306 305 302 301 301 301 301 301 301 301 300
314 313 314 314 314 312 313 313 313 312 312 312 313 313 314 313 313 311 311 311 312 312 312 312 312 312 312 312 312 312 313 313 314 314 314 314 313 311 308 306 303 301 301 301 301 300 300 300 300
313 313 314 314 313 311 313 313 313 313 313 313 313 313 313 313 312 311 311 311 311 311 311 310 311 310 310 311 311 310 311 311 312 313 314 314 313 312 309 306 305 302 300 300 300 300 300 299 299
313 313 313 314 312 311 311 314 314 315 313 312 312 312 311 311 310 309 310 311 311 311 310 310 309 310 310 309 308 308 308 309 309 310 312 313 313 312 310 308 305 302 300 300 301 299 299 299 299
314 314 312 311 312 313 310 315 316 315 315 313 313 311 311 310 308 308 307 309 310 310 309 309 310 309 309 308 307 307 307 309 309 309 309 310 311 312 310 308 305 303 301 300 300 299 299 298 299
313 309 309 310 311 311 313 313 318 311 315 315 313 310 308 306 305 305 305 305 306 308 309 309 309 308 307 306 306 306 306 305 304 305 308 308 308 309 311 308 305 302 300 300 300 299 298 298 298
308 310 310 309 311 315 316 314 316 315 314 314 313 306 305 304 303 303 304 307 308 307 307 307 307 307 308 307 306 305 304 304 304 305 305 304 305 306 307 309 306 303 301 300 300 300 299 298 297
309 311 316 320 318 320 310 315 314 314 312 311 307 305 304 303 302 303 305 305 305 307 307 306 306 305 305 306 305 304 304 303 303 303 303 303 303 304 306 306 307 305 303 301 300 299 299 298 297
310 314 321 324 324 323 318 321 319 314 310 306 305 305 303 302 301 301 301 303 303 303 303 303 304 304 304 304 304 303 303 303 302 302 302 302 302 303 302 303 304 305 304 302 301 300 299 298 297
314 313 313 316 317 318 318 318 316 311 311 307 306 305 302 301 300 299 302 302 302 302 302 301 302 302 303 303 303 303 303 303 302 302 301 301 302 302 301 301 301 302 303 303 302 301 300 299 297
310 309 313 315 319 321 318 316 316 314 311 309 306 303 300 299 298 298 297 297 299 300 301 301 301 301 300 300 300 301 301 302 303 303 302 300 300 301 301 300 301 301 302 302 301 301 300 299 298
308 311 313 313 316 318 318 315 313 312 308 307 303 299 298 297 296 296 296 297 297 297 298 298 298 298 300 299 298 299 299 300 300 302 303 302 300 299 299 299 300 300 300 300 301 300 300 300 299
312 314 315 316 315 313 313 314 309 307 304 301 298 296 296 294 293 293 293 294 294 293 293 294 296 297 296 295 296 296 297 297 298 299 300 301 302 301 299 299 298 298 299 299 299 300 299 299 299

GFSSGP_850_thetae_030.txt.gz
Theta_e
315 317 317 323 327 326 326 324 323 324 323 322 321 321 320 321 321 324 321 321 322 326 324 329 331 332 333 333 332 332 331 331 331 331 330 329 326 324 324 334 333 334 326 322 323 320 320 319 319
314 316 322 323 325 325 322 323 323 322 322 321 321 321 321 322 322 323 324 321 321 320 318 327 329 330 331 331 330 329 329 329 328 328 327 327 326 326 325 329 333 330 322 323 323 320 320 321 320
314 316 322 324 323 323 322 322 322 322 322 321 322 322 321 322 322 324 323 320 321 320 317 322 326 329 330 330 330 330 328 327 327 326 327 327 326 325 322 321 325 323 319 321 321 319 318 316 314
321 321 321 320 323 321 321 320 320 321 321 320 321 319 321 320 319 319 319 318 321 320 320 321 324 327 328 330 330 329 328 327 327 326 328 328 320 317 317 318 318 320 318 318 317 315 313 312 312
320 321 321 323 322 320 320 320 320 321 322 321 320 321 321 320 318 317 317 317 319 321 320 319 321 326 327 328 328 328 327 326 326 330 334 326 316 313 314 316 315 313 313 313 313 312 309 306 305
321 319 321 322 321 320 320 321 321 321 322 320 320 320 321 320 318 317 317 317 317 320 321 320 319 320 325 325 324 325 323 325 327 330 332 327 315 312 312 313 312 311 311 310 308 305 304 304 304
321 322 322 321 320 320 320 320 320 320 319 320 320 319 319 320 318 317 317 317 317 321 320 321 320 318 318 320 321 320 320 324 324 329 330 324 316 312 311 311 310 309 308 306 304 304 304 304 304
320 320 320 321 320 320 319 319 319 319 318 319 318 317 320 320 319 317 317 317 317 319 320 320 319 319 317 316 315 317 318 321 322 330 328 324 317 312 310 309 308 306 305 305 304 304 304 305 305
319 319 320 321 321 320 319 318 319 318 318 318 318 318 318 318 318 317 317 316 316 318 319 319 320 319 318 318 316 314 315 322 328 331 330 327 321 313 310 308 306 305 305 305 305 305 305 305 306
319 321 321 320 318 318 319 318 318 318 318 318 318 318 319 318 318 318 317 316 316 317 317 318 318 319 319 319 318 316 314 319 327 327 327 325 320 314 310 308 305 305 305 305 304 305 305 306 306
321 320 320 319 319 319 318 317 318 318 316 318 318 317 317 318 318 318 318 317 318 319 320 318 318 318 320 321 322 319 317 317 318 322 322 318 315 313 310 308 305 305 306 305 305 305 306 306 306
319 319 319 319 319 319 318 318 318 318 318 317 317 317 317 317 317 317 317 317 317 318 319 320 319 318 319 321 324 324 321 318 315 315 319 317 315 313 311 309 305 305 305 305 305 305 306 306 306
317 318 319 318 318 318 318 318 317 317 317 317 317 317 317 316 316 317 316 316 317 316 317 319 319 319 319 320 320 323 321 320 318 315 315 315 315 314 311 309 306 304 305 305 306 305 305 305 306
317 317 316 316 316 316 316 316 317 316 316 316 316 316 316 316 316 316 316 316 316 315 315 316 319 318 318 317 318 318 319 320 319 318 317 315 315 315 313 310 307 304 305 305 306 305 305 305 305
316 315 314 315 316 315 317 314 314 316 316 316 317 316 315 316 315 315 315 315 315 315 315 315 317 317 317 317 317 319 319 320 321 320 319 318 317 316 314 311 308 305 304 305 305 305 304 305 305
315 314 315 316 317 315 315 314 314 316 316 315 315 315 315 315 315 315 315 315 315 314 315 314 315 318 319 318 317 318 321 322 322 322 322 320 318 317 315 312 309 307 304 304 304 304 304 304 304
314 314 315 316 317 315 314 315 315 315 315 315 315 315 315 315 314 313 314 314 314 314 314 314 314 314 316 318 319 320 320 322 323 324 323 322 320 318 316 314 311 308 306 304 303 303 303 303 303
316 316 316 316 316 315 314 313 313 316 316 316 316 316 315 312 310 311 312 312 311 312 313 313 312 314 313 313 316 319 321 321 322 323 322 322 320 319 317 315 312 309 307 304 303 303 302 302 302
315 314 314 315 315 314 315 315 314 315 315 315 315 315 315 309 309 310 309 308 309 310 310 311 312 311 312 313 314 317 320 321 321 321 321 320 319 318 317 315 313 311 309 307 304 302 301 301 301
314 314 314 314 315 314 313 314 314 313 314 314 314 312 310 308 307 306 306 306 306 306 306 307 308 310 310 310 313 315 316 317 318 318 318 318 317 316 316 315 313 310 308 306 304 303 301 300 300
314 315 314 314 313 313 312 312 313 314 315 311 310 308 307 306 305 305 305 305 306 306 306 306 306 307 307 308 310 311 313 315 316 315 315 315 315 315 314 314 313 311 310 308 305 303 301 300 300
314 314 313 313 312 312 310 311 313 313 312 309 308 307 306 305 304 304 304 305 305 305 305 305 306 306 306 306 307 307 308 309 308 308 308 307 309 311 312 311 311 311 310 309 307 304 302 300 299
314 312 312 311 311 311 312 312 314 314 310 309 308 306 305 304 303 303 303 303 303 303 304 303 304 304 303 305 305 305 305 305 306 306 306 306 305 304 305 306 307 308 308 308 307 306 302 300 299
311 310 310 310 311 314 315 315 316 313 310 308 308 306 305 304 303 302 302 302 302 302 302 303 303 303 304 303 302 302 302 302 303 304 304 304 303 303 302 302 303 304 305 306 306 306 304 303 300
310 310 315 318 314 317 316 317 317 317 310 308 307 306 304 303 303 302 302 302 303 304 304 304 304 303 303 301 302 301 301 301 302 301 301 301 301 301 301 301 301 301 301 302 303 303 304 304 302
312 316 317 319 319 318 314 316 318 311 308 308 306 305 303 302 301 300 300 300 300 301 301 302 302 302 301 301 301 300 300 300 300 300 301 300 300 300 300 300 300 300 300 300 300 300 300 301 302
316 318 317 319 312 316 315 314 313 309 308 307 305 303 301 300 300 299 299 298 297 296 296 296 296 296 296 298 299 299 299 298 299 299 299 299 299 299 299 298 298 298 298 298 298 298 298 298 299
313 311 316 315 313 308 312 312 313 312 310 306 303 301 300 298 297 297 297 297 295 293 292 291 290 290 290 290 291 292 294 294 295 296 297 296 296 297 298 299 298 299 298 297 297 297 297 297 297
309 310 310 312 312 313 313 311 311 310 310 306 302 301 299 297 296 295 294 295 295 292 290 289 289 289 288 288 288 288 288 289 290 292 292 293 293 293 293 294 297 298 298 297 296 296 296 296 296
310 311 312 316 313 312 313 314 309 305 303 303 302 301 298 297 295 293 292 291 292 290 289 288 288 288 288 287 287 287 287 287 287 287 288 288 289 289 289 290 290 290 293 297 297 295 295 295 295

GFSSGP_850_thetae_033.txt.gz
Theta_e
314 315 317 323 319 318 319 321 319 320 321 321 321 320 319 320 319 320 321 322 323 325 324 333 333 333 333 333 334 334 334 333 332 332 332 331 329 325 327 332 334 335 322 321 322 319 319 319 320
314 316 322 323 318 318 317 319 320 320 321 321 321 321 320 320 322 322 322 321 321 324 323 328 331 332 333 333 333 332 331 329 329 331 330 326 325 325 327 334 333 335 324 321 322 319 320 321 320
314 317 321 317 316 317 318 318 318 319 321 320 320 321 321 321 321 321 322 320 320 321 320 326 328 329 331 332 331 329 328 327 327 327 326 325 325 324 324 323 329 329 317 319 320 318 318 316 315
320 321 320 314 319 318 318 317 318 319 320 320 320 318 321 320 319 319 318 318 319 320 319 323 327 329 329 329 329 329 329 327 326 325 325 325 324 322 319 320 319 317 316 317 316 315 313 312 312
320 320 315 318 319 318 316 320 319 319 319 320 320 318 319 320 318 317 317 317 317 318 319 320 324 327 329 330 329 329 329 327 327 325 325 327 317 315 314 315 316 315 313 313 312 312 311 309 307
320 317 314 317 317 316 318 320 320 319 320 320 319 319 320 320 317 317 316 316 316 318 318 319 319 322 326 328 329 330 329 327 326 325 328 331 323 314 312 313 314 312 312 311 311 308 305 304 304
319 314 317 318 318 317 318 319 318 318 317 318 319 317 318 320 318 317 317 317 316 317 318 319 319 319 319 323 326 327 328 328 327 328 330 332 328 320 311 311 312 311 310 309 306 305 304 304 304
319 314 318 316 316 318 318 318 318 318 317 318 318 315 319 318 318 318 317 317 317 317 317 318 319 320 320 318 320 322 324 325 325 329 330 331 331 327 314 311 311 309 308 306 305 304 304 304 305
318 313 314 317 316 315 317 316 318 318 318 318 318 318 318 318 318 318 317 317 316 317 318 317 318 319 320 318 318 317 316 320 322 325 326 330 330 327 320 312 309 308 306 305 305 305 304 305 305
317 313 316 316 315 317 317 316 316 316 316 317 317 317 317 317 318 318 318 318 317 316 317 318 318 318 319 319 318 317 317 317 317 321 324 329 330 327 323 315 309 307 305 305 305 305 305 305 306
319 316 317 318 319 318 317 317 318 317 313 317 317 317 317 317 317 317 317 317 317 317 316 319 318 318 318 319 319 319 318 317 316 319 325 329 327 325 322 315 310 307 305 305 306 305 306 306 306
318 318 319 318 318 317 317 318 317 317 317 316 316 317 317 316 316 317 316 316 316 316 317 316 319 320 319 317 318 319 319 318 317 318 322 323 319 316 316 313 310 308 305 306 306 305 306 306 306
315 315 317 317 317 317 316 315 316 317 316 316 316 316 316 316 316 316 315 316 315 315 316 316 316 319 320 320 319 320 320 320 320 320 318 320 321 315 315 313 311 309 306 305 306 305 305 306 306
315 315 315 315 315 315 314 314 316 316 316 316 315 316 316 315 315 315 315 315 315 315 315 315 315 315 318 320 321 322 323 322 323 323 321 319 318 317 315 314 313 310 308 305 305 305 305 305 305
315 313 312 314 314 313 314 314 313 316 315 315 316 316 316 315 314 315 314 315 315 315 316 315 315 315 316 317 320 322 325 326 324 323 322 322 320 319 316 316 316 312 309 305 305 305 305 305 305
313 312 313 313 314 315 314 312 312 316 315 316 316 316 316 312 313 313 312 313 313 314 315 315 316 315 315 318 320 322 323 326 326 325 324 323 323 322 320 319 319 315 310 307 305 305 305 305 305
312 311 312 313 314 314 313 312 313 316 315 315 315 315 311 311 311 311 311 312 312 313 313 314 315 315 314 316 319 320 322 323 325 326 326 326 324 323 323 322 321 319 313 309 306 305 304 304 304
313 312 313 313 313 312 312 310 310 314 314 314 313 312 309 308 307 307 308 309 310 311 311 312 313 316 317 317 319 321 321 322 323 325 326 325 326 325 323 322 321 319 315 311 308 305 304 303 302
312 313 312 311 312 311 311 310 311 312 314 313 310 308 306 306 305 306 307 307 308 309 310 311 311 313 315 316 317 319 321 322 323 324 323 322 322 322 321 321 320 318 316 313 310 307 305 303 301
313 312 312 311 312 312 311 311 310 311 309 308 306 306 305 305 305 305 305 306 306 306 306 308 309 310 310 311 312 314 316 319 320 320 321 320 319 319 318 318 317 317 316 314 311 308 305 303 301
313 313 312 313 311 310 309 308 309 307 307 306 305 305 305 304 304 304 305 305 305 305 305 306 307 307 308 309 311 313 314 315 316 318 317 317 317 316 315 315 315 315 314 313 312 309 306 303 301
313 311 311 312 310 310 309 310 309 308 307 305 304 304 303 303 303 303 303 304 304 304 305 305 305 305 306 306 307 308 309 310 310 309 310 309 309 311 313 313 312 312 312 311 311 309 307 304 301
311 310 310 310 309 310 310 309 309 308 308 306 304 303 302 302 302 302 303 303 304 305 305 305 305 305 305 304 304 304 305 305 306 306 306 306 306 305 305 306 307 309 308 308 308 307 307 304 302
309 310 309 308 307 311 311 311 312 309 308 305 304 303 303 302 302 302 301 301 302 302 303 304 304 305 304 304 304 303 303 303 303 304 304 304 303 302 302 302 302 303 304 305 305 305 305 304 303
309 309 313 313 311 313 314 314 313 312 306 306 303 303 302 302 301 301 301 301 301 301 301 302 302 302 302 302 303 302 301 301 301 301 301 301 301 301 301 301 301 300 300 301 302 303 303 303 302
309 310 313 314 317 314 311 315 315 306 305 304 303 302 301 300 300 300 300 300 300 299 299 298 298 298 299 299 298 298 299 299 298 296 297 298 298 299 299 299 299 300 300 299 299 299 300 301 301
314 314 314 314 311 309 312 312 307 306 304 303 302 301 300 300 299 299 300 299 298 297 296 294 293 293 293 293 293 293 293 293 293 293 293 293 293 293 295 297 298 299 299 299 298 298 298 298 298
313 312 313 313 310 310 310 310 309 308 305 302 300 300 299 298 298 298 297 297 296 293 291 291 290 290 290 290 290 290 289 289 289 289 289 289 289 289 289 290 291 293 297 298 298 298 298 296 296
308 310 312 312 312 313 308 308 309 309 305 302 300 300 300 299 297 296 295 295 294 290 289 288 288 288 288 288 288 288 288 288 288 287 288 288 288 288 288 288 287 287 288 289 292 295 297 296 296
309 310 309 313 311 309 311 312 306 305 304 302 301 301 300 299 297 294 293 292 290 289 289 288 288 288 288 287 287 287 287 287 287 287 287 286 286 287 287 287 287 287 286 286 286 287 288 289 294